Flag for Germany Weather past 2 weeks in Mannheim, Baden-Württemberg, Germany

Now
70 °F

Sunny.


Feels Like: 70 °F
Forecast: 51 / 64 °F
Wind: 2 mph from East

Location: Baden Wurttemberg - Neuostheim

Current Time: Sep 20, 2014 at 10:03:30 PM

Latest Report: Sep 20, 2014 at 7:50 PM


Visibility: 10 mi

Pressure: 29.95 "Hg

Humidity: 73%

Dew point: 61 °F

Location of MannheimLocation

Historic Weather in Mannheim — Graph

°F

Mannheim temperature yesterday

Maximum temperature yesterday: 77 °F (at 3:20 PM)
Minimum temperature yesterday: 63 °F (at 6:20 AM)
Average temperature yesterday: 70 °F

Past Weeks' High & Low Weather Summary

 TemperatureHumidityPressure
High82 °F (Sep 6, 5:20 PM)100% (Sep 6, 7:20 AM)30.18 "Hg (Sep 6, 7:20 AM)
Low50 °F (Sep 11, 5:20 AM)37% (Sep 6, 5:20 PM)29.86 "Hg (Sep 6, 4:20 PM)
Average66 °F73%29.99 "Hg
* Reported Sep 5 7:20 PM — Sep 20 7:50 PM, Mannheim, Weather by CustomWeather, © 2014

Note: Actual official high and low records may vary slightly from our data, if they occured in-between our weather recording intervals... More about our weather records

Advertising

Mannheim weather history for previous 24 hours

 ConditionsComfort  
Time TempWeatherWind HumidityBarometerVisibility
7:50 PM
Sep 20
70 °FSunny.2 mph73%29.95 "Hg10 mi
3:20 PM75 °FScattered clouds.7 mph57%29.98 "HgN/A
2:50 PM75 °FScattered clouds.3 mph61%29.95 "HgN/A
2:20 PM75 °FScattered clouds.5 mph61%29.98 "HgN/A
1:50 PM73 °FBroken clouds.5 mph65%29.98 "HgN/A
1:20 PM72 °FPassing clouds.5 mph69%29.98 "HgN/A
12:50 PM72 °FScattered clouds.3 mph73%29.98 "HgN/A
12:20 PM70 °FPartly sunny.3 mph78%29.98 "HgN/A
11:50 AM68 °FPassing clouds.5 mph78%29.98 "HgN/A
11:20 AM66 °FPassing clouds.3 mph88%29.98 "HgN/A
10:50 AM64 °FPassing clouds.3 mph94%29.98 "HgN/A
10:20 AM64 °FScattered clouds.5 mph94%29.98 "HgN/A
9:50 AM63 °FScattered clouds.3 mph100%29.98 "HgN/A
9:20 AM63 °FLight rain. Scattered clouds.3 mph100%29.98 "HgN/A
8:50 AM63 °FLight rain. Partly sunny.3 mph94%29.98 "Hg6 mi
8:20 AM63 °FPartly sunny.3 mph94%29.98 "HgN/A
7:50 AM63 °FPartly cloudy.5 mph94%29.95 "HgN/A
7:20 AM61 °FPassing clouds.5 mph100%29.95 "HgN/A
Weather by CustomWeather, © 2014

See weather overviewHow to use our weather pages